RPLL

Manila/Ninoy Aquino International Airport

Airport
ICAO code
RPLL
IATA Code
MNL
Summary
ICAO Region
APAC
ICAO Territory
Location

Pasay City and Parañaque City, Manila

Serving
Manila
Elevation
75 ft
Coordinates
14° 30' 35" N , 121° 0' 48" E
KCC
Metar
Observation
RPLL 091800Z 04002KT 9000 FEW023 BKN100 26/24 Q1005 NOSIG RMK A2968
Station
Ninoy Aquino Inter-National Airport
Date/Time
2022-12-09 18:00:00
Wind direction
40°
Wind speed
02 kts
Lowest cloud amount
few clouds
Temperature
26°C
Dew point
24°C
Humidity
88%
QNH
1005 hPa
Weather condition
n/a

International airport serving Manila, located along the border between Pasay City and Parañaque City, about 7 km south of Manila proper, and southwest of Makati City.

Climatology

Tropical Monsoon/Savanna climate (Köppen climate classification Am/Aw)

Runways

Designator Length Width Surface Rops
13/31 2258 45 CON Yes/Yes
6/24 3737 60 CON Yes/Yes

Airport map

Aerial View

SKYbrary Partners:

Safety knowledge contributed by: